• In Germany
  • List of Countries
  • For 7 days
  • Water Temperature
  • Satellite Maps
  • Weather Map
  • Weather Widgets
  • user-avatar
    Login

    Hourly Weather Mendoza

    Today, 24 August, Thursday

    Time Temperature Precipitation Wind Pressure Humidity
    00:00 +10°C° 0 mm 3 mps 694 mmHg 27%
    01:00 +10°C° 0 mm 3 mps 694 mmHg 27%
    02:00 +10°C° 0 mm 3 mps 693 mmHg 27%
    03:00 +9°C° 0 mm 3 mps 693 mmHg 28%
    04:00 +8°C° 0 mm 4 mps 693 mmHg 28%
    05:00 +10°C° 0 mm 4 mps 693 mmHg 27%
    06:00 +10°C° 0 mm 4 mps 693 mmHg 26%
    07:00 +10°C° 0 mm 4 mps 693 mmHg 25%
    08:00 +13°C° 0 mm 4 mps 693 mmHg 22%
    09:00 +15°C° 0 mm 4 mps 693 mmHg 18%
    10:00 +19°C° 0 mm 4 mps 693 mmHg 15%
    11:00 +20°C° 0 mm 5 mps 693 mmHg 13%
    12:00 +22°C° 0 mm 5 mps 692 mmHg 11%
    13:00 +25°C° 0 mm 5 mps 692 mmHg 9%
    14:00 +25°C° 0 mm 5 mps 692 mmHg 9%
    15:00 +25°C° 0 mm 4 mps 692 mmHg 8%
    16:00 +25°C° 0 mm 4 mps 692 mmHg 8%
    17:00 +22°C° 0 mm 4 mps 693 mmHg 9%
    18:00 +20°C° 0 mm 4 mps 693 mmHg 10%
    19:00 +17°C° 0 mm 5 mps 693 mmHg 11%
    20:00 +17°C° 0 mm 4 mps 693 mmHg 12%
    21:00 +15°C° 0 mm 4 mps 694 mmHg 13%
    22:00 +14°C° 0 mm 4 mps 694 mmHg 14%
    23:00 +13°C° 0 mm 5 mps 694 mmHg 14%

    Tomorrow, 25 August, Friday

    Time Temperature Precipitation Wind Pressure Humidity
    00:00 +13°C° 0 mm 5 mps 694 mmHg 14%
    01:00 +12°C° 0 mm 5 mps 694 mmHg 14%
    02:00 +12°C° 0 mm 5 mps 694 mmHg 15%
    03:00 +12°C° 0 mm 5 mps 694 mmHg 16%
    04:00 +10°C° 0 mm 5 mps 694 mmHg 17%
    05:00 +10°C° 0 mm 5 mps 694 mmHg 18%
    06:00 +10°C° 0 mm 5 mps 695 mmHg 19%
    07:00 +10°C° 0 mm 5 mps 696 mmHg 21%
    08:00 +13°C° 0 mm 5 mps 696 mmHg 24%
    09:00 +14°C° 0 mm 5 mps 697 mmHg 28%
    10:00 +16°C° 0 mm 5 mps 697 mmHg 32%
    11:00 +17°C° 0 mm 6 mps 697 mmHg 31%
    12:00 +17°C° 0 mm 6 mps 697 mmHg 31%
    13:00 +19°C° 0 mm 6 mps 697 mmHg 30%
    14:00 +17°C° 0 mm 6 mps 697 mmHg 33%
    15:00 +16°C° 0 mm 6 mps 697 mmHg 35%
    16:00 +16°C° 0 mm 6 mps 697 mmHg 37%
    17:00 +14°C° 0 mm 5 mps 698 mmHg 40%
    18:00 +13°C° 0 mm 5 mps 699 mmHg 43%
    19:00 +12°C° 0 mm 4 mps 700 mmHg 46%
    20:00 +11°C° 0 mm 3 mps 700 mmHg 46%
    21:00 +10°C° 0 mm 3 mps 700 mmHg 46%
    22:00 +10°C° 0 mm 2 mps 700 mmHg 46%
    23:00 +9°C° 0 mm 2 mps 700 mmHg 46%

    Day after tomorrow, 26 August, Saturday

    Time Temperature Precipitation Wind Pressure Humidity
    00:00 +9°C° 0 mm 2 mps 700 mmHg 46%
    01:00 +9°C° 0 mm 2 mps 699 mmHg 46%
    02:00 +8°C° 0 mm 2 mps 699 mmHg 48%
    03:00 +8°C° 0 mm 2 mps 699 mmHg 49%
    04:00 +8°C° 0 mm 2 mps 699 mmHg 50%
    05:00 +8°C° 0 mm 2 mps 699 mmHg 49%
    06:00 +8°C° 0 mm 2 mps 699 mmHg 48%
    07:00 +9°C° 0 mm 2 mps 700 mmHg 48%
    08:00 +10°C° 0 mm 2 mps 699 mmHg 44%
    09:00 +13°C° 0 mm 2 mps 699 mmHg 41%
    10:00 +14°C° 0 mm 2 mps 699 mmHg 38%
    11:00 +15°C° 0 mm 2 mps 698 mmHg 36%
    12:00 +16°C° 0 mm 3 mps 697 mmHg 34%
    13:00 +17°C° 0 mm 3 mps 696 mmHg 31%
    14:00 +17°C° 0 mm 3 mps 696 mmHg 31%
    15:00 +17°C° 0 mm 3 mps 696 mmHg 31%
    16:00 +17°C° 0 mm 2 mps 696 mmHg 31%
    17:00 +16°C° 0 mm 2 mps 696 mmHg 34%
    18:00 +15°C° 0 mm 2 mps 697 mmHg 37%
    19:00 +14°C° 0 mm 2 mps 697 mmHg 40%
    20:00 +14°C° 0 mm 2 mps 697 mmHg 40%
    21:00 +13°C° 0 mm 2 mps 697 mmHg 40%
    22:00 +13°C° 0 mm 2 mps 697 mmHg 40%
    23:00 +13°C° 0 mm 2 mps 696 mmHg 39%

    27 August, Sunday

    Time Temperature Precipitation Wind Pressure Humidity
    00:00 +11°C° 0 mm 3 mps 696 mmHg 39%
    01:00 +11°C° 0 mm 3 mps 695 mmHg 39%
    02:00 +11°C° 0 mm 3 mps 695 mmHg 40%
    03:00 +10°C° 0 mm 3 mps 695 mmHg 41%
    04:00 +10°C° 0 mm 3 mps 694 mmHg 42%
    05:00 +10°C° 0 mm 3 mps 695 mmHg 43%
    06:00 +11°C° 0 mm 3 mps 695 mmHg 43%
    07:00 +11°C° 0 mm 3 mps 695 mmHg 43%
    08:00 +13°C° 0 mm 3 mps 695 mmHg 39%
    09:00 +16°C° 0 mm 3 mps 695 mmHg 36%
    10:00 +18°C° 0 mm 3 mps 695 mmHg 32%
    11:00 +19°C° 0 mm 4 mps 695 mmHg 29%
    12:00 +20°C° 0 mm 4 mps 694 mmHg 25%
    13:00 +22°C° 0 mm 5 mps 694 mmHg 22%
    14:00 +22°C° 0 mm 5 mps 694 mmHg 22%
    15:00 +22°C° 0 mm 4 mps 694 mmHg 21%
    16:00 +22°C° 0 mm 4 mps 694 mmHg 21%
    17:00 +21°C° 0 mm 4 mps 694 mmHg 24%
    18:00 +19°C° 0 mm 4 mps 694 mmHg 27%
    19:00 +18°C° 0 mm 4 mps 694 mmHg 30%
    20:00 +17°C° 0 mm 4 mps 694 mmHg 29%
    21:00 +17°C° 0 mm 4 mps 694 mmHg 29%
    22:00 +15°C° 0 mm 4 mps 694 mmHg 28%
    23:00 +15°C° 0 mm 4 mps 694 mmHg 29%

    28 August, Monday

    Time Temperature Precipitation Wind Pressure Humidity
    00:00 +14°C° 0 mm 4 mps 694 mmHg 29%
    01:00 +14°C° 0 mm 4 mps 694 mmHg 29%
    02:00 +13°C° 0 mm 4 mps 694 mmHg 29%
    03:00 +13°C° 0 mm 4 mps 694 mmHg 30%
    04:00 +12°C° 0 mm 4 mps 693 mmHg 31%
    05:00 +12°C° 0 mm 4 mps 694 mmHg 34%
    06:00 +12°C° 0 mm 4 mps 694 mmHg 38%
    07:00 +13°C° 0 mm 5 mps 695 mmHg 42%
    08:00 +14°C° 0 mm 5 mps 695 mmHg 43%
    09:00 +16°C° 0 mm 6 mps 695 mmHg 45%
    10:00 +17°C° 0 mm 6 mps 695 mmHg 46%
    11:00 +19°C° 0 mm 6 mps 694 mmHg 43%
    12:00 +20°C° 0 mm 6 mps 693 mmHg 40%
    13:00 +21°C° 0 mm 6 mps 693 mmHg 37%
    14:00 +21°C° 0 mm 6 mps 693 mmHg 36%
    15:00 +21°C° 0 mm 6 mps 693 mmHg 35%
    16:00 +21°C° 0 mm 6 mps 693 mmHg 34%
    17:00 +19°C° 0.1 mm 5 mps 693 mmHg 38%
    18:00 +17°C° 0.1 mm 5 mps 694 mmHg 43%
    19:00 +15°C° 0.1 mm 5 mps 694 mmHg 48%
    20:00 +14°C° 0 mm 5 mps 695 mmHg 51%
    21:00 +13°C° 0 mm 6 mps 695 mmHg 54%
    22:00 +11°C° 0 mm 6 mps 695 mmHg 56%
    23:00 +10°C° 0 mm 6 mps 696 mmHg 57%

    29 August, Tuesday

    Time Temperature Precipitation Wind Pressure Humidity
    00:00 +9°C° 0 mm 6 mps 696 mmHg 57%
    01:00 +8°C° 0 mm 6 mps 696 mmHg 57%
    02:00 +8°C° 0 mm 5 mps 696 mmHg 55%
    03:00 +7°C° 0 mm 5 mps 697 mmHg 52%
    04:00 +7°C° 0 mm 5 mps 697 mmHg 49%
    05:00 +7°C° 0 mm 4 mps 697 mmHg 47%
    06:00 +7°C° 0 mm 4 mps 698 mmHg 46%
    07:00 +7°C° 0 mm 4 mps 698 mmHg 44%
    08:00 +8°C° 0 mm 5 mps 698 mmHg 40%
    09:00 +10°C° 0 mm 5 mps 698 mmHg 36%
    10:00 +12°C° 0 mm 5 mps 698 mmHg 32%
    11:00 +13°C° 0 mm 5 mps 698 mmHg 30%
    12:00 +14°C° 0 mm 5 mps 698 mmHg 27%
    13:00 +15°C° 0 mm 5 mps 698 mmHg 25%
    14:00 +15°C° 0 mm 5 mps 698 mmHg 25%
    15:00 +15°C° 0 mm 5 mps 699 mmHg 25%
    16:00 +15°C° 0 mm 5 mps 699 mmHg 25%
    17:00 +14°C° 0 mm 4 mps 700 mmHg 27%
    18:00 +13°C° 0 mm 4 mps 701 mmHg 29%
    19:00 +12°C° 0 mm 3 mps 701 mmHg 31%
    20:00 +11°C° 0 mm 3 mps 702 mmHg 32%
    21:00 +10°C° 0 mm 2 mps 702 mmHg 33%
    22:00 +9°C° 0 mm 2 mps 702 mmHg 33%
    23:00 +9°C° 0 mm 2 mps 702 mmHg 34%
    Show more